User: anonymous   Login
Location: Bonn
(50.7330°N, 7.1000°E)
Time: 00:41:48
(UTC+01:00)
Language:

Cosmos 1933 Rocket - Orbit

View from above orbital plane
View from above orbital plane
View from above satellite
View from above satellite

Ground track
Ground track

The orbit data is extracted from the following two-line orbital elements,

1 18959U 88020B   14325.84838705  .00000525  00000-0  61716-4 0  4125
2 18959 082.5393 067.4445 0016447 356.0473 143.3203 14.82938248441491
Epoch (UTC): 21 November 2014 20:21:40
Eccentricity: 0.0016447
inclination: 82.5393°
perigee height: 608 km
apogee height: 631 km
right ascension of ascending node: 67.4445°
argument of perigee: 356.0473°
revolutions per day: 14.82938248
mean anomaly at epoch: 143.3203°
orbit number at epoch: 44149

The dashed part of the orbit path shows where the satellite is in the earth's shadow,  

DLR